FW4407 Weather Reports


Display with metric or nautical units.
time (UTC)temp
F
wind
direction
speed
MPH
gust
MPH
rain 1hr
in
rain 24hr
in
rain mn
in
humidity
%
barometer
mb
20260902033535 80 159 1.0 5.0 0.00 0.00 0.00 50 1016.0
20260902032523 80 148 1.0 5.0 0.00 0.00 0.00 50 1015.8
20260902031535 80 150 1.0 5.0 0.00 0.00 0.00 49 1015.9
20260902030523 80 146 2.0 8.0 0.00 0.00 0.00 49 1015.8
20260902025515 80 144 1.0 8.0 0.00 0.00 0.00 48 1015.8
20260902024523 80 137 1.0 5.0 0.00 0.00 0.00 48 1015.8
20260902023535 80 132 0.0 5.0 0.00 0.00 0.00 48 1015.8
20260902022543 80 149 1.0 5.0 0.00 0.00 0.00 49 1015.8
20260902021515 81 161 2.0 5.0 0.00 0.00 0.00 48 1016.0
20260902020523 81 144 1.0 5.0 0.00 0.00 0.00 49 1015.8
20260902015535 81 117 0.0 5.0 0.00 0.00 0.00 48 1015.8
20260902014543 81 122 2.0 8.0 0.00 0.00 0.00 47 1016.1
20260902013515 81 142 2.0 8.0 0.00 0.00 0.00 47 1016.1
20260902012523 81 130 3.0 10.0 0.00 0.00 0.00 47 1016.0
20260902011535 81 156 1.0 8.0 0.00 0.00 0.00 47 1015.9
20260902010543 82 0.0 0.0 0.00 0.00 0.00 48 1016.0
20260902005515 82 133 1.0 5.0 0.00 0.00 0.00 46 1015.8
20260902004523 82 120 0.0 2.0 0.00 0.00 0.00 46 1015.8
20260902003515 82 124 1.0 5.0 0.00 0.00 0.00 45 1015.8
20260902002523 82 130 1.0 5.0 0.00 0.00 0.00 45 1015.9
20260902001515 82 131 2.0 10.0 0.00 0.00 0.00 47 1015.8
20260902000523 82 125 2.0 10.0 0.00 0.00 0.00 48 1015.8
20260901235515 82 116 1.0 8.0 0.00 0.00 0.00 48 1015.9
20260901234523 82 117 2.0 8.0 0.00 0.00 0.00 48 1015.8
20260901233515 82 125 2.0 5.0 0.00 0.00 0.00 49 1015.9
20260901232543 83 115 2.0 5.0 0.00 0.00 0.00 49 1015.8
20260901231515 83 132 3.0 8.0 0.00 0.00 0.00 49 1015.9
20260901230522 83 127 4.0 10.0 0.00 0.00 0.00 49 1016.0
20260901225551 83 114 3.0 8.0 0.00 0.00 0.00 49 1016.0
20260901224523 83 129 4.0 10.0 0.00 0.00 0.00 49 1016.1
20260901223530 83 133 5.0 10.0 0.00 0.00 0.00 50 1016.1
20260901222523 83 127 6.0 13.0 0.00 0.00 0.00 50 1016.2
20260901221531 83 120 5.0 13.0 0.00 0.00 0.00 50 1016.2
20260901220523 83 128 6.0 15.0 0.00 0.00 0.00 50 1016.1
20260901215516 83 130 5.0 10.0 0.00 0.00 0.00 50 1016.0
20260901214524 83 132 3.0 15.0 0.00 0.00 0.00 49 1016.1
20260901213516 83 130 3.0 10.0 0.00 0.00 0.00 49 1016.1
20260901212524 83 122 3.0 10.0 0.00 0.00 0.00 49 1016.1
20260901211515 83 124 2.0 8.0 0.00 0.00 0.00 49 1015.9
20260901210524 83 119 0.0 5.0 0.00 0.00 0.00 49 1016.0
20260901205516 83 10 1.0 8.0 0.00 0.00 0.00 50 1016.1
20260901204523 83 50 0.0 2.0 0.00 0.00 0.00 50 1016.1
20260901203515 83 354 0.0 2.0 0.00 0.00 0.00 50 1015.9
20260901202544 83 157 1.0 5.0 0.00 0.00 0.00 49 1016.1
20260901201516 83 10 1.0 2.0 0.00 0.00 0.00 49 1016.0
20260901200523 83 10 3.0 8.0 0.00 0.00 0.00 49 1016.0
20260901195515 84 15 3.0 8.0 0.00 0.00 0.00 49 1016.1
20260901194543 84 68 1.0 5.0 0.00 0.00 0.00 49 1016.0
20260901193515 84 114 1.0 5.0 0.00 0.00 0.00 48 1016.0
20260901192524 84 114 3.0 10.0 0.00 0.00 0.00 48 1016.1
20260901191515 84 127 2.0 8.0 0.00 0.00 0.00 48 1016.0
20260901190523 84 134 3.0 10.0 0.00 0.00 0.00 48 1015.9
20260901185515 84 121 2.0 8.0 0.00 0.00 0.00 47 1015.8
20260901184524 84 125 2.0 8.0 0.00 0.00 0.00 47 1015.9
20260901183515 85 350 1.0 8.0 0.00 0.00 0.00 47 1015.9
20260901182523 85 354 2.0 8.0 0.00 0.00 0.00 46 1015.7
20260901181535 85 355 1.0 8.0 0.00 0.00 0.00 46 1015.6
20260901180523 85 77 2.0 8.0 0.00 0.00 0.00 45 1015.6
20260901175515 86 360 2.0 8.0 0.00 0.00 0.00 45 1015.4
20260901174523 86 39 2.0 8.0 0.00 0.00 0.00 44 1015.3
20260901173515 86 84 2.0 10.0 0.00 0.00 0.00 44 1015.1
20260901172524 86 125 2.0 8.0 0.00 0.00 0.00 44 1015.0
20260901171515 87 121 2.0 8.0 0.00 0.00 0.00 43 1015.0
20260901170525 87 128 2.0 8.0 0.00 0.00 0.00 43 1015.2
20260901165515 87 130 3.0 10.0 0.00 0.00 0.00 43 1015.0
20260901164523 88 126 2.0 5.0 0.00 0.00 0.00 43 1015.0
20260901163515 88 127 5.0 13.0 0.00 0.00 0.00 42 1014.7
20260901162523 89 135 4.0 10.0 0.00 0.00 0.00 41 1014.7
20260901161516 90 129 3.0 10.0 0.00 0.00 0.00 40 1014.7
20260901160523 91 140 4.0 13.0 0.00 0.00 0.00 39 1014.7
20260901155515 91 129 3.0 10.0 0.00 0.00 0.00 36 1014.7
20260901154524 92 119 4.0 10.0 0.00 0.00 0.00 36 1014.6
20260901153515 92 127 5.0 13.0 0.00 0.00 0.00 35 1014.6
20260901152524 92 127 5.0 13.0 0.00 0.00 0.00 35 1014.7
20260901151515 92 116 3.0 13.0 0.00 0.00 0.00 35 1014.7
20260901150544 92 129 4.0 15.0 0.00 0.00 0.00 35 1014.7
20260901145515 92 125 5.0 15.0 0.00 0.00 0.00 35 1014.6
20260901144523 93 128 6.0 13.0 0.00 0.00 0.00 35 1014.7
20260901143515 93 126 6.0 15.0 0.00 0.00 0.00 35 1014.7
20260901142523 93 116 5.0 13.0 0.00 0.00 0.00 35 1014.7
20260901141515 93 122 7.0 17.0 0.00 0.00 0.00 35 1014.9
20260901140523 93 126 6.0 15.0 0.00 0.00 0.00 35 1014.9
20260901135515 93 129 5.0 15.0 0.00 0.00 0.00 35 1014.9
20260901134523 93 124 6.0 13.0 0.00 0.00 0.00 35 1014.9
20260901133515 93 131 5.0 15.0 0.00 0.00 0.00 34 1014.9
20260901132523 93 118 7.0 17.0 0.00 0.00 0.00 35 1014.9
20260901131515 93 126 7.0 17.0 0.00 0.00 0.00 35 1014.8
20260901130523 93 122 8.0 23.0 0.00 0.00 0.00 35 1014.9
20260901125515 93 119 9.0 20.0 0.00 0.00 0.00 35 1015.1
20260901124523 93 121 8.0 17.0 0.00 0.00 0.00 35 1015.1
20260901123515 93 136 9.0 20.0 0.00 0.00 0.00 34 1015.3
20260901122523 93 115 4.0 15.0 0.00 0.00 0.00 33 1015.5
20260901121515 93 119 6.0 17.0 0.00 0.00 0.00 34 1015.5
20260901120543 93 135 5.0 15.0 0.00 0.00 0.00 33 1015.5
20260901115515 93 119 4.0 13.0 0.00 0.00 0.00 33 1015.7
20260901114523 93 127 9.0 17.0 0.00 0.00 0.00 33 1015.6
20260901113515 93 127 7.0 15.0 0.00 0.00 0.00 32 1015.7
20260901112543 92 116 6.0 15.0 0.00 0.00 0.00 33 1015.7
20260901111515 92 103 5.0 15.0 0.00 0.00 0.00 33 1015.7
20260901110543 92 106 6.0 20.0 0.00 0.00 0.00 34 1015.7
20260901105535 92 118 6.0 23.0 0.00 0.00 0.00 33 1015.8
20260901104543 92 110 4.0 13.0 0.00 0.00 0.00 33 1015.8
20260901103535 92 48 4.0 13.0 0.00 0.00 0.00 33 1015.8
20260901102543 91 51 5.0 13.0 0.00 0.00 0.00 33 1015.8
20260901101515 91 129 5.0 15.0 0.00 0.00 0.00 34 1015.8
20260901100523 91 118 6.0 20.0 0.00 0.00 0.00 34 1015.9
20260901095515 91 123 7.0 17.0 0.00 0.00 0.00 34 1015.9
20260901094523 91 108 6.0 15.0 0.00 0.00 0.00 34 1016.0
20260901093515 91 123 6.0 15.0 0.00 0.00 0.00 35 1016.1
20260901092523 91 101 3.0 13.0 0.00 0.00 0.00 35 1016.1
20260901091515 91 132 10.0 20.0 0.00 0.00 0.00 36 1016.0
20260901090523 90 125 8.0 15.0 0.00 0.00 0.00 36 1016.0
20260901085515 90 27 4.0 13.0 0.00 0.00 0.00 36 1016.0
20260901084523 89 98 5.0 17.0 0.00 0.00 0.00 37 1016.0
20260901083515 89 24 6.0 17.0 0.00 0.00 0.00 37 1016.0
20260901082543 89 58 5.0 10.0 0.00 0.00 0.00 38 1015.9
20260901081515 88 86 4.0 13.0 0.00 0.00 0.00 38 1015.9
20260901080523 88 119 5.0 15.0 0.00 0.00 0.00 38 1015.8
20260901075515 87 132 6.0 13.0 0.00 0.00 0.00 40 1015.9
20260901074523 86 128 7.0 17.0 0.00 0.00 0.00 41 1015.8
20260901073515 86 132 7.0 13.0 0.00 0.00 0.00 43 1015.7
20260901072523 86 120 6.0 15.0 0.00 0.00 0.00 44 1015.7
20260901071515 86 124 7.0 15.0 0.00 0.00 0.00 44 1015.7
20260901070523 86 117 4.0 13.0 0.00 0.00 0.00 44 1015.7
20260901065515 86 130 4.0 13.0 0.00 0.00 0.00 45 1015.6
20260901064523 87 130 3.0 8.0 0.00 0.00 0.00 45 1015.7
20260901063515 87 142 1.0 5.0 0.00 0.00 0.00 44 1015.7
20260901062543 88 121 1.0 5.0 0.00 0.00 0.00 44 1015.7
20260901061515 87 0.0 0.0 0.00 0.00 0.00 43 1015.8
20260901060523 84 0.0 0.0 0.00 0.00 0.00 42 1015.8
20260901055515 81 0.0 0.0 0.00 0.00 0.00 43 1015.7
20260901054523 80 0.0 0.0 0.00 0.00 0.00 48 1015.7
20260901053515 80 13 1.0 5.0 0.00 0.00 0.00 51 1015.6
20260901052523 80 20 1.0 2.0 0.00 0.00 0.00 52 1015.6
20260901051535 79 0.0 0.0 0.00 0.00 0.00 49 1015.7
20260901050523 79 0.0 0.0 0.00 0.00 0.00 50 1015.7
20260901045515 77 0.0 0.0 0.00 0.00 0.00 49 1015.4
20260901044523 76 0.0 0.0 0.00 0.00 0.00 50 1015.5
20260901043515 75 0.0 0.0 0.00 0.00 0.00 52 1015.3
20260901042523 75 0.0 0.0 0.00 0.00 0.00 53 1015.3
20260901041515 75 0.0 0.0 0.00 0.00 0.00 53 1015.3
20260901040523 75 0.0 0.0 0.00 0.00 0.00 53 1015.2
20260901035515 75 0.0 0.0 0.00 0.00 0.00 52 1015.1